Location: Ch�tillon
(48.8024°N, 2.2935°E)
Time: 13:18:58
(UTC+00:00)

LO-87 - Pass Details

Date: 03 July 2022
Orbit: 451 x 466 km, 97.4° (Epoch: 08 August)

Event Time Altitude Azimuth Distance (km) Brightness Sun altitude
Exits shadow 23:57:56 28° 246° (WSW) 893 ? -18.3°
Maximum altitude 23:58:26 30° 264° (W) 865 ? -18.3°
Drops below altitude 10° 00:01:33 10° 327° (NNW) 1,626 ? -18.3°
Sets 00:03:47 0° 338° (NNW) 2,511 ? -18.3°
